Location: Baix
(44.7118°N, 4.7648°E)
Time: 09:22:14
(UTC+00:00)

Vanguard 2 Rocket - Pass Details

Date: 03 December 2020
Orbit: 554 x 3325 km, 32.9° (Epoch: 21 January)

Event Time Altitude Azimuth Distance (km) Brightness Sun altitude
Rises 08:56:27 0° 260° (W) 7,160 11.2 14.4°
Reaches altitude 10° 09:01:16 10° 257° (WSW) 6,247 11.0 14.9°
Maximum altitude 09:20:42 56° 187° (S) 3,455 10.6 16.8°
Drops below altitude 10° 09:35:26 10° 115° (ESE) 4,877 11.6 18.1°
Sets 09:38:40 0° 111° (ESE) 5,566 11.7 18.4°
